TimeEDT,TemperatureF,Dew PointF,Humidity,Sea Level PressureIn,VisibilityMPH,Wind Direction,Wind SpeedMPH,Gust SpeedMPH,PrecipitationIn,Events,Conditions,WindDirDegrees,DateUTC
12:53 AM,55.0,45.0,69,30.00,10.0,Calm,Calm,-,N/A,,Clear,0,2013-04-09 04:53:00
1:53 AM,55.0,45.0,69,29.98,10.0,Calm,Calm,-,N/A,,Mostly Cloudy,0,2013-04-09 05:53:00
2:53 AM,55.0,46.0,72,29.96,10.0,NE,3.5,-,N/A,,Partly Cloudy,40,2013-04-09 06:53:00
3:53 AM,54.0,45.0,72,29.95,10.0,Calm,Calm,-,N/A,,Partly Cloudy,0,2013-04-09 07:53:00
4:53 AM,51.1,45.0,80,29.95,10.0,Calm,Calm,-,N/A,,Clear,0,2013-04-09 08:53:00
5:53 AM,51.1,45.0,80,29.96,10.0,Calm,Calm,-,N/A,,Clear,0,2013-04-09 09:53:00
6:53 AM,51.1,46.0,83,29.98,8.0,Calm,Calm,-,N/A,,Clear,0,2013-04-09 10:53:00
7:53 AM,55.0,48.0,77,29.98,8.0,Calm,Calm,-,N/A,,Clear,0,2013-04-09 11:53:00
8:53 AM,66.0,48.9,54,29.96,10.0,SSW,6.9,-,N/A,,Clear,210,2013-04-09 12:53:00
9:53 AM,73.9,46.9,38,29.96,10.0,WNW,13.8,24.2,N/A,,Clear,290,2013-04-09 13:53:00
10:53 AM,75.9,46.0,35,29.97,10.0,WNW,17.3,23.0,N/A,,Clear,300,2013-04-09 14:53:00
11:53 AM,77.0,42.1,29,29.98,10.0,WNW,12.7,24.2,N/A,,Clear,300,2013-04-09 15:53:00
12:53 PM,78.1,41.0,27,29.97,10.0,WNW,12.7,25.3,N/A,,Clear,290,2013-04-09 16:53:00
1:53 PM,80.1,39.0,23,29.96,10.0,West,13.8,20.7,N/A,,Clear,280,2013-04-09 17:53:00
2:53 PM,82.0,37.0,20,29.95,10.0,NNW,11.5,19.6,N/A,,Clear,330,2013-04-09 18:53:00
3:53 PM,82.9,34.0,17,29.94,10.0,NW,15.0,19.6,N/A,,Clear,310,2013-04-09 19:53:00
4:53 PM,82.0,30.9,16,29.94,10.0,NNW,8.1,-,N/A,,Clear,340,2013-04-09 20:53:00
5:53 PM,81.0,32.0,17,29.95,10.0,NNW,6.9,-,N/A,,Clear,330,2013-04-09 21:53:00
6:53 PM,79.0,32.0,18,29.95,10.0,Calm,Calm,-,N/A,,Clear,0,2013-04-09 22:53:00
7:53 PM,73.0,37.9,28,29.96,10.0,Calm,Calm,-,N/A,,Clear,0,2013-04-09 23:53:00
8:53 PM,66.9,39.9,37,29.98,10.0,Calm,Calm,-,N/A,,Clear,0,2013-04-10 00:53:00
9:53 PM,64.0,42.1,45,29.98,10.0,Calm,Calm,-,N/A,,Partly Cloudy,0,2013-04-10 01:53:00
10:53 PM,64.9,39.0,39,29.94,10.0,Calm,Calm,-,N/A,,Clear,0,2013-04-10 02:53:00
11:53 PM,63.0,41.0,45,29.91,10.0,Calm,Calm,-,N/A,,Mostly Cloudy,0,2013-04-10 03:53:00